Location: Unspecified
(42.3650°N, 71.1030°W)
Time: 13:23:13
(UTC+00:00)

Tiangong - Visible Passes

Search period start: 23 May 2024 00:00
Search period end: 02 June 2024 00:00
Orbit: 371 x 374 km, 41.5° (Epoch: 23 May)

Date Brightness Start Highest point End Pass type
(mag) Time Alt. Az. Time Alt. Az. Time Alt. Az.
23 May -0.5 07:36:09 19° SSE 07:36:28 20° SSE 07:38:48 10° ESE visible
24 May -1.6 08:07:18 18° SW 08:09:12 42° SSE 08:12:09 10° E visible
25 May -0.6 07:06:24 25° SE 07:06:24 25° SE 07:08:22 10° E visible
25 May -2.2 08:38:56 10° WSW 08:42:00 70° S 08:45:05 10° E visible
26 May -2.1 07:37:20 36° SW 07:38:18 55° SSE 07:41:20 10° E visible
27 May -0.1 06:36:15 20° ESE 06:36:15 20° ESE 06:37:26 10° E visible
27 May -2.3 08:08:11 12° W 08:10:56 76° S 08:14:02 10° E visible
28 May -2.3 07:07:03 66° S 07:07:03 66° S 07:10:05 10° E visible
29 May 0.8 06:05:52 11° E 06:05:52 11° E 06:06:03 10° E visible
29 May -2.3 07:37:48 24° W 07:39:29 76° S 07:42:35 10° E visible
30 May -0.9 06:36:38 32° E 06:36:38 32° E 06:38:29 10° E visible
30 May -2.1 08:08:49 10° W 08:11:50 55° SSW 08:14:52 10° ESE visible
31 May -2.4 07:07:27 67° SW 07:07:40 71° S 07:10:44 10° ESE visible
01 Jun -1.9 07:38:28 26° WSW 07:39:48 43° SSW 07:42:45 10° ESE visible
